Theta_e
306 296 293 292 296 299 300 300 300 301 300 299 298 297 295 295 296 299 299 297 298 295 294 295 296 296 298 299 299 297 297 296 296 296 296 296 296 296 295 296 295 295 294 296 297 297 298 299 298 299 301 301 302 303 303 303 303 303 303 302 302 303 304 302 301 300 298 296 296 295 295 294 294 294 294 294 294 294 295 295 295 295 295 295 296 297
303 295 296 299 301 302 302 302 301 300 299 298 297 295 293 296 293 298 298 295 298 295 293 296 295 296 298 300 299 297 296 295 296 296 296 296 296 296 295 295 294 294 295 296 295 297 297 297 298 299 299 300 299 300 302 302 302 302 301 301 301 301 300 299 298 297 296 296 295 294 293 293 293 293 292 292 292 293 293 293 293 293 293 293 293 294
295 293 298 302 304 304 302 300 300 298 299 299 295 294 293 293 297 299 299 297 297 297 292 295 293 295 297 298 299 296 296 296 297 297 297 296 295 295 295 295 294 294 294 294 294 296 296 297 298 297 298 298 299 300 301 302 302 301 300 299 298 298 298 298 298 297 296 296 296 295 293 292 291 292 292 292 292 292 291 290 291 291 291 291 291 292
292 296 300 304 304 302 300 301 299 299 299 295 294 291 290 295 294 291 295 296 297 294 293 293 293 295 298 300 300 297 297 295 296 297 296 298 296 295 295 295 294 293 292 292 293 293 295 295 295 297 297 297 299 299 299 300 300 300 299 298 297 297 296 296 296 295 295 295 294 294 293 292 290 289 290 289 289 289 289 289 290 290 290 290 290 290
296 302 305 304 303 300 299 300 298 295 293 296 295 294 293 295 296 294 295 296 296 296 296 293 291 292 295 295 292 293 295 295 294 295 295 294 296 295 295 295 295 294 293 292 292 292 293 294 294 295 296 297 297 297 297 298 299 299 298 298 297 296 296 296 295 295 294 293 291 291 291 291 290 289 288 287 287 288 288 288 288 289 290 290 290 290
298 303 304 302 300 300 299 297 297 297 292 293 297 296 296 297 296 297 298 295 291 290 296 293 284 285 294 295 294 292 292 292 293 292 292 293 293 293 292 293 293 295 294 293 292 292 292 292 293 294 295 295 295 295 296 297 298 298 298 298 297 297 297 296 296 295 294 292 291 290 289 287 286 285 285 285 285 285 286 287 288 289 289 289 289 289
299 302 302 299 299 297 298 296 298 297 293 291 293 299 299 297 296 296 295 293 283 283 292 295 284 282 291 292 293 291 291 291 291 291 292 293 293 292 292 292 292 292 292 292 292 291 292 292 292 293 294 294 294 294 296 296 297 297 297 297 296 295 295 297 295 294 294 292 291 290 289 287 286 286 286 286 286 286 286 287 287 288 288 289 288 288
298 298 298 299 299 296 295 294 299 298 293 290 296 299 297 296 295 295 294 293 289 294 295 293 291 282 284 291 295 293 292 291 289 291 292 292 292 292 292 292 292 292 291 291 291 291 292 292 292 291 292 293 293 293 294 294 295 295 294 294 293 293 293 293 294 293 292 290 290 289 288 288 287 287 286 287 287 287 287 286 286 287 287 288 288 288
298 296 297 297 296 295 294 297 300 300 295 294 297 299 296 297 296 296 293 290 290 289 283 288 292 283 283 290 296 294 291 290 290 291 291 291 292 292 292 292 292 292 292 291 290 290 291 291 290 290 290 291 293 293 293 293 292 293 292 292 292 292 292 292 292 292 291 291 290 289 288 288 288 288 288 288 289 287 288 286 286 286 286 286 287 287
298 298 299 300 296 294 298 296 299 301 295 296 298 298 297 297 295 296 289 288 286 284 281 286 291 283 283 291 292 292 291 292 292 292 292 292 292 291 291 291 291 291 291 291 291 290 289 289 289 290 290 290 290 291 292 292 292 292 292 291 291 291 291 291 291 291 291 290 290 289 288 288 288 288 288 288 287 287 286 286 285 285 285 284 285 285
298 297 298 299 297 299 294 294 295 298 297 299 298 295 294 293 290 289 289 287 284 282 284 289 292 288 281 287 290 289 291 293 293 292 292 292 292 292 292 291 291 291 291 290 289 289 288 288 288 289 289 289 289 290 290 291 291 291 291 290 290 291 291 291 291 291 291 290 290 289 289 288 288 287 287 287 286 286 285 285 284 284 284 284 284 284
296 297 297 298 299 297 297 293 295 296 297 297 292 289 290 286 287 286 285 286 280 280 284 290 291 291 281 282 291 292 293 294 294 292 292 292 291 292 291 291 291 290 290 289 288 287 287 287 287 288 287 288 288 289 290 289 290 290 290 290 290 290 290 291 291 291 291 291 290 290 289 289 289 288 288 286 286 285 285 284 284 283 283 283 283 283
291 292 297 297 299 298 295 292 291 294 294 294 291 289 284 281 281 278 281 277 279 280 282 283 289 287 286 290 291 292 292 293 295 294 293 292 292 292 291 291 291 290 289 288 287 287 286 286 286 286 287 287 287 288 289 289 289 289 289 289 289 289 289 290 290 290 290 290 289 289 289 289 288 288 287 287 286 285 285 284 284 283 282 281 281 282
289 295 296 295 296 298 298 290 285 284 289 291 289 286 283 280 278 274 278 280 280 281 282 283 286 281 286 291 297 293 292 293 293 294 294 294 292 292 291 291 291 290 289 288 288 287 286 286 286 286 286 287 287 288 288 288 288 288 289 288 288 288 289 289 289 289 289 289 289 289 288 288 288 287 286 286 285 285 285 284 283 282 282 281 281 281
283 283 291 293 288 297 297 296 293 290 289 291 293 291 286 285 279 276 279 277 278 280 281 283 281 279 281 285 289 290 290 291 292 294 294 293 293 292 291 290 290 289 288 288 288 287 286 287 286 286 286 286 286 287 288 287 287 287 287 288 288 288 288 288 288 289 288 288 288 288 288 287 287 286 286 286 286 285 284 283 283 282 282 281 281 281
288 289 294 298 296 297 295 299 300 294 290 290 293 294 287 285 287 281 282 281 279 278 277 278 279 283 286 290 289 289 289 290 291 292 293 292 292 290 289 289 288 288 288 288 287 286 286 286 286 286 286 286 286 287 287 287 287 287 287 287 287 288 288 288 288 288 288 288 288 287 286 286 286 286 285 285 285 284 283 283 282 282 281 282 281 282
287 286 291 295 297 295 296 298 298 298 284 289 291 286 289 293 290 284 281 283 280 280 278 281 281 284 290 289 288 289 288 289 290 290 291 291 291 290 289 288 288 288 288 287 287 287 286 286 286 286 286 286 287 287 287 287 287 287 287 287 287 287 287 288 287 288 287 287 286 286 286 285 285 285 284 283 283 283 283 282 282 281 281 282 282 283
286 288 290 291 289 293 292 294 297 295 297 291 283 289 294 296 293 286 280 281 279 277 279 281 280 280 282 281 287 286 286 287 288 288 290 291 290 289 289 289 289 289 289 288 288 287 286 286 286 286 286 286 286 287 287 288 288 287 288 287 287 287 287 287 287 287 286 286 286 285 285 284 284 283 283 283 282 282 282 282 282 281 281 281 282 282
296 285 287 292 291 292 294 294 294 296 295 291 288 296 289 282 282 284 281 275 275 275 277 279 282 282 284 285 284 286 287 288 288 289 289 290 290 290 289 289 289 289 289 288 288 287 287 286 286 286 286 286 286 287 287 288 288 288 287 287 287 287 287 287 287 286 287 286 286 285 284 283 283 283 283 283 283 283 282 281 281 281 281 282 282 281
295 287 284 289 291 291 292 291 285 288 294 295 295 290 292 285 283 282 283 281 282 277 276 276 281 278 287 288 288 289 290 290 289 288 289 290 291 291 291 290 289 289 289 289 289 288 287 287 286 286 286 286 286 287 287 287 287 287 287 287 287 287 287 287 286 286 286 285 285 284 284 284 283 283 283 282 282 282 281 281 281 281 281 281 280 279
289 291 283 285 292 291 283 288 287 290 287 285 284 283 286 285 287 285 285 283 280 277 276 276 276 281 288 292 291 292 293 292 290 290 290 291 291 292 292 291 290 290 290 289 289 289 288 286 285 285 285 285 285 286 287 287 287 287 287 287 287 286 286 286 286 285 285 285 284 283 283 283 283 282 282 281 281 280 280 280 281 280 280 280 279 278
289 287 285 283 283 283 286 292 293 293 293 290 288 286 289 285 282 279 279 287 283 280 277 277 277 283 291 293 293 294 294 293 292 292 291 291 292 292 293 292 291 291 291 290 290 289 288 286 285 284 284 284 285 285 286 287 286 286 286 286 286 286 286 286 285 285 285 284 284 282 282 282 281 281 280 279 279 279 278 278 279 279 279 278 277 276
294 288 287 283 285 286 291 291 292 291 291 292 292 288 291 288 285 283 278 280 282 282 281 280 276 280 289 289 287 287 287 289 293 293 292 292 292 293 293 293 292 292 291 291 290 289 287 286 285 285 284 284 284 285 284 285 286 286 286 286 286 286 286 286 286 286 285 284 282 281 280 280 280 280 279 279 278 278 278 277 277 278 277 276 276 275
295 288 286 285 287 289 290 294 293 292 292 289 289 290 290 287 288 286 284 282 282 280 280 279 277 279 288 286 286 282 283 284 289 292 292 292 293 293 293 293 292 291 290 290 290 289 287 285 284 284 284 284 284 284 285 286 286 286 285 285 286 286 286 286 286 285 284 283 282 281 281 280 280 279 278 278 278 278 278 277 277 277 276 276 275 274
289 288 287 284 283 284 285 288 289 290 289 283 285 289 290 291 290 286 284 285 281 282 280 280 277 280 287 287 287 288 287 288 289 291 293 292 291 292 292 292 292 291 290 290 289 289 286 284 283 284 284 284 284 284 284 285 285 285 285 285 285 286 286 286 285 285 284 283 281 281 281 280 280 279 278 278 278 278 277 277 277 277 276 275 274 273
291 287 287 282 280 278 277 278 281 282 284 286 285 285 290 290 289 285 284 283 280 280 283 280 280 285 288 287 289 288 286 289 290 290 292 292 292 291 291 292 292 291 291 290 289 287 286 285 284 283 283 284 284 284 284 284 284 285 285 285 285 286 286 285 285 284 283 282 281 280 280 280 279 278 278 278 277 276 276 276 276 276 276 276 274 273
287 289 288 288 286 284 286 285 287 288 285 283 285 287 288 290 290 287 286 284 282 282 282 285 284 284 285 286 288 287 284 288 288 287 288 290 291 291 291 292 292 291 290 289 288 287 284 284 283 284 283 283 283 283 284 284 284 285 285 285 285 286 285 285 284 284 282 281 280 279 279 279 278 278 277 276 276 276 276 275 275 275 275 275 274 272
286 286 288 289 288 289 288 288 290 290 286 287 286 286 288 288 289 288 286 284 286 283 281 286 286 284 287 287 287 288 288 288 289 289 289 288 288 291 291 291 292 290 288 288 286 285 285 285 284 283 283 283 283 283 284 284 285 285 285 285 286 286 285 285 284 283 281 281 279 279 278 278 278 277 276 276 276 275 275 275 275 274 273 272 272 272
287 286 289 288 287 289 287 288 287 288 288 288 288 287 286 288 288 287 287 288 287 285 283 286 286 285 288 288 289 289 291 290 290 290 291 291 291 289 289 289 289 289 288 287 287 286 285 284 284 284 283 283 283 283 283 283 284 284 284 285 286 286 285 284 283 282 281 280 279 278 278 277 277 277 276 276 275 275 274 274 274 273 272 272 272 272
289 286 288 288 287 288 288 288 287 286 285 286 287 288 288 288 287 288 288 290 288 286 287 288 285 286 289 289 290 291 291 291 291 291 290 290 290 290 289 289 289 288 288 288 287 287 287 286 285 285 284 283 283 282 283 283 283 284 284 285 285 285 284 283 282 280 279 279 278 278 277 277 277 276 276 275 275 274 274 274 273 272 272 271 271 271
290 286 290 287 286 286 288 288 288 287 287 285 287 288 288 288 288 288 288 288 288 287 288 286 285 286 291 290 290 292 290 292 291 289 290 290 289 289 289 289 289 289 289 289 288 287 287 286 285 284 284 283 283 283 283 283 283 283 283 284 284 283 282 280 280 279 279 278 277 276 276 276 276 276 275 275 275 274 274 273 273 272 271 271 271 270
289 285 286 288 284 284 287 287 286 286 286 285 285 287 286 285 285 287 286 287 286 286 287 285 285 286 289 290 291 291 290 290 289 289 289 289 289 289 289 288 288 289 288 288 288 287 286 285 285 285 284 284 283 283 282 282 282 282 283 283 283 282 280 280 280 279 279 279 278 277 277 276 276 275 275 275 275 274 273 272 272 271 270 270 269 269
287 286 284 285 283 283 285 286 284 284 284 281 284 287 287 286 288 289 288 288 289 290 286 284 285 290 290 288 288 287 288 288 289 289 289 288 287 288 289 289 289 288 288 288 287 287 287 286 286 285 285 284 284 283 283 283 282 282 283 283 283 281 280 280 280 279 279 279 277 277 276 276 275 275 275 275 274 274 272 271 271 270 270 269 268 267
287 286 285 287 282 282 283 284 285 282 276 279 287 291 290 287 288 286 287 288 289 290 288 290 289 289 287 287 286 285 286 287 289 290 291 291 288 287 288 289 288 288 288 287 287 287 287 286 286 286 285 285 284 284 283 283 283 283 283 283 282 281 280 280 279 279 279 278 277 277 277 276 276 275 275 274 273 272 271 270 270 270 268 268 268 267
285 286 285 286 282 279 282 283 280 274 278 285 285 286 291 291 290 288 289 290 289 290 290 289 289 289 290 289 289 289 288 288 287 287 287 287 289 289 289 287 287 287 287 286 286 286 286 286 286 285 284 284 284 283 282 282 282 282 282 282 282 281 280 280 279 278 278 277 277 277 276 276 276 275 274 273 272 271 270 270 269 269 268 267 268 267
285 286 285 283 283 281 279 280 273 275 283 283 285 283 285 286 287 288 286 289 289 290 290 288 290 292 292 291 288 288 287 285 285 285 286 286 288 289 287 286 286 286 286 287 287 286 287 286 286 285 285 285 284 283 282 282 282 282 282 282 282 281 280 279 278 278 277 276 277 277 276 276 276 275 274 273 271 270 270 269 269 268 268 267 267 265
287 286 286 282 284 276 278 279 278 283 282 284 282 281 284 282 283 284 279 283 287 288 288 288 289 290 290 287 287 283 283 283 284 285 284 285 285 286 287 285 285 285 286 285 286 286 286 286 285 285 284 283 283 283 282 282 282 282 281 280 280 280 279 279 278 278 277 277 277 277 277 276 276 275 273 272 271 270 269 269 267 267 267 266 267 266
288 285 286 283 281 282 278 276 276 276 274 281 284 284 285 285 286 286 283 282 285 286 288 288 288 288 286 286 284 282 283 281 282 284 285 285 285 285 283 285 284 283 283 283 282 283 283 283 283 283 284 283 283 283 282 281 282 281 280 279 279 279 278 278 278 278 277 277 277 277 277 277 276 275 273 271 270 269 269 268 267 267 266 266 266 265
284 285 284 284 282 281 279 276 276 274 278 283 280 280 283 284 286 285 281 277 283 284 287 287 287 287 286 284 281 283 282 279 280 282 282 283 284 283 283 283 281 281 281 281 281 282 282 283 283 282 282 282 282 280 280 281 280 280 279 279 278 278 278 278 278 278 278 278 278 278 277 277 276 275 273 271 270 269 268 267 267 266 265 265 264 264
282 283 284 282 281 282 280 278 276 279 278 281 279 281 281 285 286 283 272 274 281 282 285 287 286 286 284 283 283 283 282 278 281 282 281 281 281 282 281 281 280 279 280 280 280 279 280 281 282 281 281 281 281 279 280 280 280 279 279 278 278 278 278 278 279 279 279 279 278 277 276 276 275 273 272 271 269 268 268 267 265 265 265 264 263 263
280 279 282 279 281 281 282 279 280 280 284 281 280 280 281 285 284 276 273 278 280 279 282 284 284 284 283 282 283 281 282 284 282 282 279 279 279 279 278 278 278 278 279 278 279 282 280 279 280 280 280 279 279 279 279 280 279 279 278 278 277 277 278 279 279 279 278 277 275 274 273 273 273 273 271 270 268 267 266 266 265 264 263 263 263 262
279 280 280 282 279 280 281 279 279 281 285 281 281 282 283 283 273 273 280 279 281 278 280 282 282 283 282 282 281 281 283 281 279 278 278 279 278 278 277 277 277 278 278 278 279 279 278 278 278 279 279 278 278 279 279 279 279 278 277 277 277 278 280 278 277 277 276 275 274 273 271 271 271 271 269 266 266 265 264 263 263 263 262 262 262 261
280 278 276 279 281 281 280 278 277 273 283 282 282 280 281 278 279 281 279 280 279 279 279 281 281 282 282 281 281 282 281 277 278 277 277 278 278 277 277 277 277 277 277 277 278 278 278 277 277 277 277 276 275 277 278 278 278 277 277 277 278 279 277 277 277 276 275 274 272 271 270 269 268 267 266 265 265 264 263 262 261 261 261 261 260 260
285 278 278 280 284 276 278 275 277 283 282 284 285 280 281 282 282 281 282 278 280 279 279 279 280 281 280 282 281 280 280 278 278 277 277 278 278 277 277 276 276 276 277 277 277 278 276 276 276 276 275 274 273 275 277 278 278 277 277 278 279 276 276 276 276 275 274 273 271 270 268 267 266 265 264 264 264 263 262 261 260 260 260 260 260 259
285 281 282 280 285 281 280 282 281 281 283 283 284 283 284 285 283 281 282 281 279 279 278 279 279 280 281 280 278 278 279 278 278 277 278 277 277 276 277 278 278 278 278 278 278 278 277 278 277 276 274 273 273 273 275 276 277 276 276 278 275 277 276 275 274 274 273 271 269 268 266 265 264 263 262 262 263 262 261 259 259 259 259 259 260 260
279 280 280 279 279 284 282 281 282 281 281 282 283 284 284 284 282 281 281 280 280 279 280 280 279 280 280 279 280 279 279 278 279 278 278 277 277 277 277 277 277 277 276 276 276 277 277 275 273 273 274 272 272 273 274 275 276 276 278 276 276 275 275 274 273 272 272 269 268 266 264 263 261 261 261 261 262 262 262 260 260 260 259 259 259 260
280 278 280 278 279 280 276 279 280 282 281 282 283 283 282 283 283 282 282 282 281 281 280 280 281 281 281 280 279 279 278 278 278 277 277 277 278 277 278 278 278 278 278 277 278 276 274 273 275 274 273 273 272 273 273 274 275 278 275 275 275 274 274 272 273 272 270 268 266 264 263 263 262 260 260 260 260 260 261 260 260 261 260 260 260 260
277 280 277 278 278 279 277 278 278 278 280 281 283 282 282 283 283 283 282 282 282 281 281 281 279 279 278 278 278 278 278 277 277 277 277 278 278 278 278 278 278 277 277 277 275 274 272 274 275 275 274 275 275 273 273 273 275 276 274 272 274 273 272 272 271 271 270 267 266 264 263 263 262 261 260 260 260 260 261 260 260 262 262 261 261 261
280 281 272 277 276 278 278 277 278 278 278 279 280 281 282 283 282 282 282 282 281 281 280 279 279 278 278 278 278 278 276 277 278 278 278 278 277 277 278 279 279 278 278 277 274 275 276 274 274 275 275 276 276 273 272 272 273 271 273 273 272 272 272 272 270 270 267 266 264 263 263 263 262 261 260 260 260 261 262 261 261 262 262 262 263 263
279 276 276 276 272 274 277 277 277 274 272 277 278 280 281 281 282 282 281 280 280 279 280 280 279 279 278 278 278 279 278 278 278 278 278 279 278 278 277 278 278 277 277 276 276 275 275 274 274 274 274 275 273 272 272 271 272 271 272 269 269 271 272 270 269 268 267 265 264 263 262 262 261 261 261 260 260 260 260 264 266 264 263 263 267 269
279 279 278 275 276 275 278 278 280 280 278 279 280 281 281 281 281 281 281 280 280 280 280 279 279 278 278 278 279 279 278 279 279 278 278 278 279 279 279 278 277 276 276 275 274 272 274 275 275 274 274 275 272 274 273 273 272 271 271 271 269 270 271 269 269 268 266 264 265 264 263 263 262 261 261 261 260 261 260 260 264 270 270 268 268 270
Wind_Speed
4 3 4 6 7 7 6 8 9 8 7 3 1 3 5 4 5 4 5 5 1 1 4 5 6 6 7 7 4 9 5 4 5 5 5 4 5 4 4 4 4 4 5 3 4 3 3 4 3 3 3 5 5 6 6 5 5 5 6 6 7 5 5 5 6 6 6 7 8 9 9 10 8 8 8 9 9 9 9 10 10 10 9 10 10 10
2 5 7 6 7 7 7 5 10 9 7 6 2 3 5 3 5 3 3 4 1 2 1 2 6 10 10 7 4 8 6 7 8 6 4 4 5 4 4 5 4 5 3 4 4 4 4 4 4 4 4 4 6 5 5 5 4 5 6 6 6 6 7 7 7 6 7 6 6 8 7 8 7 8 8 9 9 9 8 10 10 9 9 10 10 10
4 8 7 8 7 6 3 2 4 3 2 2 1 2 3 4 5 5 3 6 1 0 5 2 5 5 5 6 5 9 8 3 3 3 4 7 5 4 4 4 5 4 4 3 3 4 4 4 4 4 4 4 4 5 4 3 5 6 6 6 6 6 6 6 6 6 8 7 7 8 8 9 10 8 8 8 8 9 10 10 9 9 9 9 10 10
6 5 12 9 7 7 3 0 0 2 2 3 3 4 6 2 2 3 1 1 3 2 2 4 9 10 11 13 10 2 4 4 5 6 7 4 6 4 5 5 4 4 4 4 4 4 4 4 4 5 4 4 3 5 4 5 5 5 5 6 6 7 6 7 7 9 8 10 11 10 10 10 10 8 8 9 9 9 10 11 9 9 9 9 9 10
11 2 2 8 8 4 6 3 3 3 6 4 6 6 4 3 5 5 2 2 3 3 5 4 6 7 12 8 2 2 5 5 3 4 3 3 5 5 6 4 3 5 4 4 4 4 4 4 4 4 5 4 5 4 3 3 4 4 6 7 7 7 7 6 8 9 9 10 11 10 9 9 10 8 8 8 9 8 8 9 10 9 9 10 10 9
11 8 0 2 5 4 4 5 5 4 6 4 6 11 6 5 5 4 5 7 5 5 0 3 3 2 0 7 8 4 1 3 3 4 4 4 3 3 4 4 3 4 4 5 5 4 4 5 4 4 4 5 5 4 2 3 5 5 6 7 8 8 7 8 7 6 7 8 7 7 8 7 8 9 7 9 7 7 8 8 6 8 9 8 9 8
3 3 6 6 5 4 4 4 4 8 5 3 3 3 4 5 1 2 3 1 3 3 1 0 3 5 3 4 3 3 4 4 3 4 5 6 5 4 4 5 5 4 3 4 5 4 5 5 5 4 4 4 5 3 2 4 5 5 5 6 5 5 4 4 4 5 4 5 6 7 8 7 7 10 6 5 6 7 6 6 8 7 7 8 8 8
5 4 2 3 5 6 5 6 4 5 3 4 1 2 5 3 3 2 3 5 5 2 2 3 2 4 6 8 5 8 6 6 4 5 5 6 6 6 5 5 5 6 5 5 5 5 4 5 5 5 4 4 5 3 3 4 5 5 5 6 5 4 5 4 6 8 8 8 8 9 8 8 7 7 9 7 6 6 6 8 7 7 7 7 7 7
4 6 6 5 5 6 8 6 4 8 5 1 1 4 2 2 0 1 3 3 3 0 5 3 2 2 5 6 6 10 5 5 9 9 9 8 6 7 5 6 6 6 6 6 6 5 5 6 5 5 5 5 5 3 4 4 4 5 5 6 5 6 5 6 7 8 8 8 8 8 8 9 7 8 7 7 6 6 5 6 6 6 6 7 7 6
3 1 5 8 6 7 3 2 2 7 7 1 3 4 3 2 1 1 1 2 3 3 6 5 6 4 6 3 5 4 3 8 9 11 10 9 9 8 7 6 6 5 6 5 5 5 4 4 5 5 5 5 4 4 4 4 4 5 5 6 7 6 6 6 7 9 9 8 8 9 8 10 9 7 7 6 7 6 5 6 6 5 6 6 6 7
1 1 2 1 3 1 4 3 4 4 4 5 4 4 1 2 1 1 1 0 2 7 9 6 8 7 5 3 8 8 7 5 4 4 5 6 7 7 6 7 6 6 6 6 6 5 5 4 5 5 5 5 4 4 4 4 5 5 5 6 7 6 6 7 7 8 8 7 7 8 7 7 9 8 7 7 7 6 5 7 6 6 6 6 6 6
1 1 0 1 4 4 4 3 4 2 2 5 2 3 2 0 2 0 1 1 2 7 3 12 12 9 7 6 0 1 3 6 9 9 11 10 10 9 7 8 8 7 6 6 6 6 6 5 4 5 6 5 4 4 4 4 4 5 5 7 8 6 6 6 7 8 7 7 6 6 6 7 6 6 6 7 7 7 6 6 7 6 6 6 6 6
5 5 2 3 4 6 3 5 2 1 1 3 4 4 7 2 2 2 2 4 7 7 1 2 1 5 11 4 3 4 4 4 3 9 11 11 10 9 8 8 8 7 6 6 6 6 6 6 6 6 6 5 5 5 5 5 4 5 6 7 9 7 6 6 7 8 7 6 5 6 6 6 7 7 7 6 7 5 6 6 7 6 6 6 6 6
4 5 7 4 2 5 7 8 3 1 5 6 8 8 6 3 3 4 4 3 3 0 3 1 2 1 1 6 9 6 4 4 4 6 9 10 11 10 9 8 8 7 7 6 6 6 6 6 5 5 6 5 5 5 5 5 5 5 6 6 8 7 6 6 7 7 7 7 7 6 7 7 7 7 7 6 7 6 6 6 7 6 6 6 6 5
3 2 7 8 5 8 11 12 11 6 9 11 5 9 8 7 3 4 5 7 5 3 0 3 3 6 5 6 3 5 4 4 4 5 7 7 7 7 7 6 7 7 6 6 6 6 6 6 6 6 6 5 4 5 5 4 5 5 6 7 8 8 6 6 7 7 7 7 7 7 6 7 6 7 7 7 6 6 7 6 7 6 6 6 5 5
12 6 1 14 1 12 12 4 5 6 4 5 5 2 3 8 1 3 0 1 1 1 1 1 4 2 5 1 3 4 4 4 3 5 8 9 8 8 7 8 7 7 7 6 6 6 6 6 5 5 5 5 5 5 5 5 5 6 6 7 7 7 7 7 7 6 7 7 7 6 7 7 7 7 7 7 6 6 6 6 7 6 6 6 5 4
3 5 1 2 1 9 7 4 3 7 6 6 5 9 7 2 2 1 1 0 1 3 6 4 3 6 0 0 2 3 3 2 1 4 6 9 9 8 7 7 7 7 7 7 7 7 7 6 5 5 6 6 6 6 6 6 6 7 8 8 8 7 6 7 6 7 7 8 8 7 7 7 7 7 7 8 7 7 6 6 6 6 6 5 5 4
6 2 2 2 2 1 0 2 0 2 0 7 5 5 2 2 2 1 2 0 2 4 4 8 8 3 4 6 3 4 5 4 4 4 4 7 9 9 7 8 9 9 8 7 6 6 7 7 7 6 6 6 6 7 7 7 6 7 7 8 9 8 8 6 7 7 7 8 7 7 7 6 7 7 7 7 7 6 7 6 6 5 6 5 4 4
3 2 2 1 3 1 3 2 2 1 3 1 3 1 7 4 5 4 1 4 2 4 3 4 7 5 11 7 4 6 9 9 8 6 6 7 8 9 7 7 7 6 7 9 9 9 9 9 9 8 7 7 6 7 6 6 7 7 6 6 7 8 7 8 7 6 6 5 5 6 7 7 7 6 6 5 6 5 6 6 6 6 6 5 5 5
1 5 0 3 1 1 0 3 10 6 1 0 1 2 0 2 1 5 6 1 3 5 1 4 6 6 7 6 14 12 13 12 10 9 11 13 11 9 8 9 9 10 10 10 10 10 10 9 9 9 9 9 9 8 7 7 7 8 7 8 7 7 7 7 7 7 7 6 6 7 6 5 5 5 5 5 5 6 5 6 6 5 6 6 5 5
2 1 4 1 2 5 2 5 10 12 13 5 1 2 0 1 1 1 2 5 3 2 3 1 3 2 2 2 13 13 12 12 15 14 12 10 9 8 8 10 10 10 10 11 10 10 10 10 9 8 8 7 7 6 6 7 8 7 7 8 8 10 9 8 8 7 6 7 7 8 7 7 6 6 5 6 5 6 5 5 5 5 5 5 5 5
0 2 5 3 2 6 2 2 8 6 10 10 11 11 11 8 4 4 7 1 2 2 4 2 8 0 1 5 4 9 7 10 11 13 10 8 8 9 8 9 10 10 10 10 9 9 9 9 9 7 7 6 8 8 8 7 7 7 8 8 9 9 8 10 9 8 8 6 7 7 7 6 5 6 6 6 6 6 5 5 5 5 5 5 4 4
2 2 4 4 5 6 3 1 0 2 1 5 8 7 7 5 2 4 6 4 1 4 2 1 1 6 2 3 4 3 4 3 6 9 8 8 9 9 8 8 9 9 10 10 9 9 9 9 10 10 11 11 11 9 8 8 8 8 8 8 8 9 9 8 9 8 8 8 7 7 6 6 6 6 6 7 6 6 6 5 4 5 5 4 4 4
4 2 2 1 3 1 1 2 0 0 0 1 4 4 7 11 11 8 3 3 6 1 2 1 3 2 1 1 2 2 3 2 3 7 9 7 7 8 8 8 9 8 7 7 8 8 9 8 8 9 10 11 11 10 10 9 7 8 7 8 9 10 10 9 9 9 9 8 8 7 7 7 6 7 6 7 6 7 6 5 4 5 5 5 5 4
4 3 5 3 1 1 1 1 2 1 1 3 4 8 7 5 6 3 3 0 1 7 6 7 12 2 3 3 2 3 4 3 3 4 7 9 4 6 7 6 7 7 8 10 11 10 10 10 13 13 12 12 10 9 9 10 9 9 8 8 10 10 10 9 9 10 9 9 10 8 8 8 7 7 7 7 6 7 7 6 5 4 5 5 4 3
5 3 9 8 12 9 9 11 13 11 11 3 3 5 8 11 9 7 9 5 7 4 11 5 6 2 2 2 1 1 1 1 3 3 2 4 8 7 6 6 7 9 10 9 10 10 15 15 11 10 11 11 11 11 11 10 10 10 9 10 9 10 9 9 9 9 10 9 10 9 9 9 8 8 8 7 7 7 6 6 5 5 4 5 4 3
2 1 6 13 14 15 9 2 2 7 5 9 11 11 12 10 7 7 3 5 12 4 9 12 5 2 4 2 2 3 3 4 6 5 7 5 5 5 6 7 8 9 10 11 12 10 7 7 13 14 12 12 12 11 10 11 11 11 10 10 9 9 10 10 10 10 10 10 10 10 10 9 8 8 8 8 7 6 6 6 6 5 5 4 3 4
2 3 12 14 14 9 0 2 4 8 12 12 10 13 10 11 11 11 13 12 6 5 13 6 6 6 11 8 6 5 7 6 5 6 5 5 5 8 8 6 7 6 6 6 7 10 14 14 11 11 13 13 13 12 11 12 12 13 13 13 11 11 11 10 11 11 10 11 10 10 10 9 8 9 8 7 7 7 6 6 6 6 4 3 3 3
6 9 14 9 13 9 1 4 3 2 7 11 15 13 14 13 12 16 15 6 8 11 15 5 11 10 13 8 10 9 9 9 6 6 8 8 6 4 5 6 8 8 8 9 11 11 11 11 13 14 13 14 12 13 13 11 11 10 9 9 10 11 12 11 11 11 11 10 11 10 9 9 8 7 8 8 7 7 7 7 6 6 4 3 3 4
4 9 7 10 13 10 6 4 2 1 2 2 8 13 13 15 17 15 11 12 10 8 8 9 4 8 6 3 12 10 6 5 5 4 5 5 6 7 7 7 8 8 9 11 12 12 12 13 12 12 12 10 13 13 12 12 12 13 12 11 10 10 9 10 10 10 10 10 9 9 9 9 8 8 8 8 8 8 7 7 6 5 5 4 4 3
8 6 8 5 8 12 11 4 2 1 1 3 4 4 7 9 10 8 10 13 9 8 13 5 5 12 8 7 6 4 4 1 2 4 7 6 6 6 7 7 8 9 10 9 9 10 10 9 8 7 9 11 13 15 14 12 11 9 9 10 11 11 9 10 10 10 10 10 7 8 8 9 9 9 9 8 7 7 7 7 6 6 5 5 5 4
5 4 2 6 9 9 8 10 6 3 1 3 8 12 11 4 6 10 12 6 6 12 10 4 9 14 3 8 3 3 5 5 6 5 5 5 6 7 8 8 9 9 9 9 10 9 7 8 8 9 11 12 12 13 12 12 12 12 13 12 12 11 10 11 11 12 11 10 10 9 10 9 9 9 9 9 8 8 6 6 5 5 5 5 4 4
7 6 7 7 10 7 4 10 8 6 2 3 14 22 11 5 4 4 3 7 12 9 6 10 14 13 2 4 4 3 5 6 6 6 6 6 6 7 9 10 11 9 9 10 9 8 9 9 10 10 11 10 13 14 16 15 13 14 14 13 11 11 12 13 13 12 12 11 11 11 10 9 10 10 9 8 7 7 6 6 6 6 6 6 4 4
5 8 7 4 6 3 8 9 8 6 10 13 1 4 11 13 14 12 11 11 6 8 9 9 9 6 2 1 4 5 5 5 6 7 6 6 5 6 9 9 9 9 8 7 7 8 8 8 8 10 12 13 14 14 12 13 15 14 11 11 11 13 13 13 12 12 12 12 12 12 11 11 10 9 9 8 7 7 7 7 7 6 5 5 5 4
10 8 5 3 4 4 6 9 5 11 14 1 4 2 8 14 12 13 14 12 11 10 9 9 9 11 9 6 5 5 6 6 5 6 5 5 6 8 9 8 7 7 7 6 6 6 7 9 9 9 8 8 10 8 8 9 9 7 8 10 12 12 12 12 12 11 11 12 12 12 11 11 10 9 9 8 8 7 7 8 6 6 6 6 6 6
9 9 4 2 4 3 3 8 7 6 2 2 3 3 1 4 5 9 9 11 11 11 10 10 13 14 12 8 5 3 2 1 0 1 1 2 5 6 5 6 6 6 6 6 7 7 8 8 10 10 10 7 6 7 9 11 9 9 10 10 13 12 12 11 11 12 10 12 12 12 12 12 11 10 10 10 8 9 8 8 8 8 6 5 5 4
8 5 4 5 3 7 4 8 5 4 6 5 3 2 8 6 6 9 6 9 12 9 8 10 13 13 9 5 4 2 3 2 3 7 1 4 5 2 5 5 5 6 6 5 6 7 6 6 6 7 5 6 7 8 9 9 10 10 9 10 11 12 12 12 12 13 13 13 13 13 12 12 12 11 11 11 11 10 10 10 8 6 5 6 6 6
4 9 3 7 5 6 5 3 1 1 7 9 1 4 6 6 7 6 4 7 4 7 10 10 12 8 6 5 2 4 5 1 7 8 5 7 6 7 4 2 1 3 4 4 4 5 4 4 4 5 7 7 7 9 8 8 10 9 10 10 10 12 12 13 14 14 14 14 14 14 14 14 13 13 12 12 13 12 10 7 5 7 6 8 7 7
3 2 0 6 3 6 4 5 6 7 7 2 2 3 4 5 9 6 3 8 3 8 9 10 10 9 8 5 4 4 3 4 8 7 4 1 2 2 3 2 4 3 4 4 5 4 4 3 5 5 5 6 7 6 7 8 10 10 11 11 12 13 14 15 15 15 16 17 16 14 13 12 12 12 13 13 12 10 11 10 9 7 6 5 5 5
4 3 4 5 6 4 5 5 8 4 5 1 4 1 4 6 9 7 1 6 1 4 6 9 11 8 4 7 8 6 7 7 9 5 1 1 3 2 3 4 4 4 3 3 2 5 5 4 4 3 5 7 7 6 8 9 10 10 11 11 11 12 15 17 18 17 14 10 10 11 11 11 12 11 13 13 10 9 8 7 7 7 7 5 5 6
3 1 5 11 9 8 9 5 1 4 1 3 7 4 4 4 6 6 12 3 3 2 0 4 4 4 6 7 8 7 7 7 3 3 2 1 4 2 3 2 3 5 5 5 4 5 4 4 5 6 6 5 5 6 7 8 9 9 9 10 11 14 17 17 12 9 9 8 8 9 10 9 10 12 10 9 10 9 7 7 8 8 7 7 6 6
1 2 1 1 6 9 9 8 8 3 3 6 1 9 6 7 5 10 2 2 9 4 2 3 5 3 5 8 5 6 5 3 5 4 3 2 3 3 4 4 4 3 1 2 5 4 4 4 3 3 2 3 6 6 6 8 9 8 8 9 13 18 14 6 7 8 7 9 9 9 8 8 7 8 9 8 9 9 8 5 6 7 7 6 6 7
9 8 7 8 4 1 1 6 2 6 3 9 11 2 2 4 4 5 4 1 2 6 4 1 4 1 4 4 5 6 2 4 5 5 4 3 4 4 5 4 5 6 5 3 2 3 5 5 5 5 5 4 5 5 6 7 8 7 8 11 17 11 6 7 7 8 9 9 10 10 10 8 9 9 8 9 9 10 9 7 8 7 7 7 6 7
4 5 3 5 5 6 8 8 8 3 7 11 12 8 6 5 4 7 9 5 1 3 4 3 1 4 5 6 6 3 2 4 2 4 3 2 2 2 3 4 4 4 4 4 5 7 5 5 4 5 4 4 4 5 6 9 9 8 9 15 11 5 6 7 8 8 9 10 10 10 9 9 9 8 8 10 10 9 10 9 7 7 7 6 7 7
7 8 2 7 5 8 7 5 1 3 10 7 1 1 7 6 6 5 7 7 5 3 3 4 6 5 6 5 5 5 3 4 4 5 4 4 4 4 5 6 7 8 8 8 8 7 6 8 7 5 4 4 5 5 6 7 10 9 12 11 5 7 8 8 8 9 9 10 10 10 8 8 8 8 8 8 10 11 9 8 8 8 6 6 6 7
4 1 1 3 3 1 2 3 3 2 4 6 2 1 6 6 3 4 6 4 4 5 7 7 5 5 5 5 6 3 4 3 2 3 3 4 4 5 5 5 5 6 5 4 3 6 7 5 4 5 6 5 5 6 6 7 8 11 14 5 6 7 8 9 10 10 11 9 9 9 9 10 7 7 7 8 7 8 9 11 11 9 8 7 7 7
3 2 1 3 2 4 6 1 6 7 4 6 5 2 3 2 2 2 4 5 5 6 5 4 5 5 6 5 5 4 3 3 3 3 4 4 5 5 6 7 7 8 8 8 8 6 5 6 5 6 6 8 6 7 6 8 9 12 6 7 7 7 8 9 11 10 8 10 9 8 10 12 10 8 7 7 6 6 7 7 8 8 9 8 8 8
3 4 2 3 4 6 2 3 1 2 2 2 4 4 2 1 0 2 2 3 4 4 5 5 4 2 4 4 5 5 5 4 4 4 4 5 6 6 6 7 7 6 6 7 4 5 4 5 8 8 8 10 9 8 8 8 10 9 6 5 7 8 9 10 11 11 11 11 10 9 10 10 11 11 9 8 9 9 8 7 8 10 11 12 11 10
5 7 6 5 4 2 1 1 1 3 2 1 0 1 2 3 3 2 3 2 2 2 2 2 3 5 5 5 4 5 4 4 5 6 6 6 5 5 6 7 7 7 6 5 5 6 8 6 7 9 9 11 7 7 8 9 8 5 6 6 7 9 10 10 9 8 7 8 8 9 8 9 9 9 9 9 8 7 8 11 12 11 7 6 7 10
7 7 3 5 2 5 11 8 8 4 3 2 3 6 6 5 3 2 3 4 4 4 4 4 4 3 4 5 5 6 6 6 5 5 6 6 6 6 6 7 7 6 6 6 5 7 7 8 8 8 8 8 4 5 7 8 8 6 6 5 5 7 10 9 9 8 9 9 9 8 9 8 8 8 9 9 9 8 6 7 10 8 8 8 11 15
9 8 8 8 10 7 3 8 10 6 4 5 9 8 7 5 4 4 4 5 5 5 5 5 4 4 5 5 5 7 6 6 7 6 6 6 7 7 7 6 6 5 5 5 5 5 6 8 7 7 7 8 5 7 8 8 8 7 7 7 6 7 8 8 8 8 7 8 10 11 10 9 9 9 8 8 8 8 8 6 8 15 15 11 11 13
Wind_Direction
145 183 192 201 216 221 213 214 231 237 253 296 34 248 268 289 289 295 296 137 145 36 246 245 263 259 264 255 201 187 169 212 210 151 154 154 141 144 144 142 129 116 116 125 128 109 110 104 98 88 101 86 78 75 62 57 55 70 78 74 71 74 77 84 84 73 78 85 86 74 70 76 65 65 63 61 54 54 52 50 48 46 46 44 46 44
31 215 224 219 225 230 241 237 218 230 256 269 291 309 293 273 272 276 283 170 63 138 258 322 292 274 265 261 236 157 158 200 203 172 172 157 142 140 146 134 136 108 130 149 126 128 105 109 109 98 70 88 82 68 67 57 52 60 62 65 69 64 61 62 69 81 73 62 72 89 81 84 71 68 65 65 58 56 54 51 50 49 47 47 48 46
214 223 225 225 236 249 260 58 9 348 304 322 291 279 271 238 256 260 260 112 134 201 260 262 279 286 291 283 271 163 182 190 181 159 171 157 145 144 145 139 119 131 150 151 121 120 111 105 102 96 93 81 85 84 78 69 70 64 67 65 65 61 68 71 78 85 86 85 84 88 93 91 90 69 73 75 69 62 60 52 48 47 47 48 49 46
246 229 227 233 236 240 209 101 4 299 278 244 250 234 234 243 256 285 52 204 122 165 288 312 288 272 264 251 250 140 146 86 63 64 49 70 140 156 155 147 147 147 144 148 153 137 134 126 110 101 94 100 98 98 95 89 87 83 74 78 75 72 69 75 76 87 87 89 92 86 92 88 88 93 80 75 63 59 57 51 47 45 45 46 50 44
225 224 28 197 210 180 221 208 208 214 255 219 211 235 244 212 228 203 247 192 180 220 205 267 284 273 251 243 126 34 74 103 95 78 78 43 58 74 74 91 135 150 150 134 128 126 132 120 111 108 115 106 92 82 81 95 97 99 93 93 92 89 90 89 89 92 100 101 95 101 96 90 90 72 67 68 59 53 56 58 46 41 40 43 46 43
248 242 114 197 153 171 199 246 192 189 242 247 220 204 218 255 274 313 344 14 7 318 157 162 332 290 134 175 171 152 140 152 159 150 177 167 137 142 142 137 80 83 121 150 150 146 131 113 108 115 117 104 98 85 44 87 104 104 103 103 105 108 109 112 113 112 109 108 111 101 101 92 81 81 64 66 77 64 57 61 54 49 46 46 48 44
251 136 150 159 157 163 200 208 194 165 227 245 263 350 199 199 60 21 315 46 309 251 293 79 154 264 356 4 165 165 179 182 135 200 185 174 173 178 182 156 148 147 127 106 109 119 121 132 132 123 115 113 100 89 82 73 85 87 88 88 86 90 90 101 117 120 109 88 82 85 88 96 98 102 89 89 82 87 81 76 66 60 50 49 53 48
118 155 114 137 149 178 198 216 216 171 173 246 313 11 64 74 131 205 224 203 250 343 268 172 175 250 282 266 237 173 171 181 191 207 199 179 177 182 183 157 161 162 153 143 145 151 142 145 144 136 126 113 108 101 85 85 83 88 92 97 96 85 77 68 78 79 84 94 94 95 93 94 102 98 108 107 99 95 99 87 81 72 60 51 52 55
149 177 142 176 193 191 214 218 184 192 191 171 246 111 79 107 187 259 194 245 228 334 276 200 171 316 250 256 209 152 168 200 216 200 201 182 180 175 173 159 159 155 154 156 151 147 151 149 131 129 113 112 108 101 98 99 97 94 94 96 92 88 84 78 82 86 85 91 99 105 110 104 99 107 108 110 105 100 99 94 87 84 78 65 54 53
347 193 178 184 178 217 162 39 355 170 202 181 127 62 89 87 78 209 215 200 275 240 238 193 180 210 277 233 126 175 215 215 209 199 188 179 172 174 164 157 151 139 145 146 146 144 135 121 123 121 114 95 103 111 108 102 101 101 103 100 97 91 90 95 93 96 95 99 107 110 116 119 119 118 113 104 104 97 89 91 81 75 76 69 60 48
156 134 136 163 215 167 105 52 37 45 82 150 118 95 65 74 185 22 6 108 343 249 236 209 207 175 287 252 186 171 218 184 135 123 149 158 163 166 159 153 151 147 148 147 138 131 121 116 118 124 120 118 107 114 110 107 112 116 111 111 103 103 100 100 102 102 104 106 112 119 124 124 124 121 120 115 105 105 96 95 93 83 77 72 65 52
154 53 339 254 75 92 109 64 25 357 124 131 134 126 113 335 43 4 255 253 205 261 200 199 212 182 210 285 333 128 89 126 150 165 164 167 171 166 160 157 152 153 152 139 137 136 135 131 137 126 122 132 139 121 115 115 116 116 118 116 109 103 103 101 104 103 104 107 108 108 112 113 113 113 113 114 114 114 111 103 98 87 77 66 64 55
237 197 139 54 284 140 147 92 354 58 51 145 133 140 133 198 87 241 149 209 212 240 275 349 313 194 229 244 142 179 128 128 138 160 167 167 164 162 159 156 153 153 152 150 149 148 151 154 157 143 144 141 149 144 135 133 126 122 122 120 113 111 108 106 106 108 107 106 105 106 103 100 101 103 106 108 103 99 99 97 91 89 83 69 62 48
271 191 184 173 38 225 161 158 162 50 220 172 177 172 153 174 192 227 195 225 251 277 292 55 312 297 316 252 227 168 125 116 98 137 152 160 161 159 157 153 150 154 158 159 156 155 160 160 160 151 149 152 148 144 141 137 132 128 122 119 116 119 116 115 109 108 106 101 102 100 100 100 103 101 98 95 100 96 94 97 97 96 95 87 84 75
233 326 226 139 234 173 199 199 179 163 163 200 190 177 188 177 176 214 182 207 210 176 197 301 86 233 128 241 25 95 80 61 60 92 132 131 133 137 137 137 142 150 160 160 160 161 162 161 160 153 151 148 146 143 139 138 137 130 125 125 124 125 124 117 115 109 107 104 100 99 98 98 96 100 98 93 95 100 98 92 96 87 86 93 90 87
212 227 240 174 18 156 195 203 153 127 149 202 203 215 231 230 100 193 189 59 102 110 102 236 200 201 182 89 85 90 65 52 57 98 122 128 130 133 142 157 163 164 163 162 158 159 159 157 155 146 146 148 146 144 143 144 143 136 135 132 131 132 129 123 117 114 112 108 99 94 96 96 98 99 99 94 86 88 92 97 101 102 98 99 96 83
154 230 35 47 20 169 190 174 197 145 178 201 167 216 191 50 46 342 9 358 51 11 252 153 292 299 58 19 116 135 104 124 114 134 129 136 143 148 166 169 170 173 171 169 169 168 162 157 162 157 153 150 151 149 156 157 151 145 141 139 135 130 125 122 119 115 111 109 107 105 105 106 105 106 108 111 106 103 102 101 94 99 102 94 90 93
147 193 320 99 201 336 8 291 3 63 45 109 207 210 57 33 80 148 223 60 189 224 257 151 194 232 143 256 148 129 169 186 185 172 161 143 152 168 176 175 176 180 178 170 165 166 168 165 165 160 158 155 157 157 156 154 151 147 148 146 139 136 131 124 119 117 119 118 116 114 106 101 106 112 111 111 114 110 109 110 109 100 95 100 101 98
156 246 220 282 72 14 352 47 348 10 59 140 174 343 142 229 248 218 109 246 193 227 260 228 193 215 185 212 141 192 188 198 190 168 166 173 179 181 172 174 174 167 163 173 176 173 175 173 171 166 162 158 157 159 158 153 146 145 143 141 140 138 133 128 124 118 112 112 113 112 113 115 112 112 115 119 118 121 118 115 109 110 114 104 97 93
49 207 340 308 118 149 70 151 197 198 262 111 318 333 184 80 265 150 197 239 138 243 181 284 146 250 190 204 183 191 197 183 166 167 191 192 188 175 173 174 175 177 182 181 182 180 176 173 169 167 165 165 165 164 161 155 150 151 148 141 136 126 125 122 121 123 122 118 117 116 113 110 114 112 116 116 114 110 108 107 113 116 109 107 102 98
263 132 257 131 335 114 204 194 202 179 186 202 143 251 170 177 269 93 305 182 180 205 218 249 280 273 270 213 172 188 181 171 167 181 191 192 184 178 175 175 180 183 185 186 184 178 173 169 167 166 164 159 157 161 157 160 161 154 145 147 145 142 139 134 133 129 131 127 129 127 125 126 122 119 111 106 100 101 101 100 99 101 106 99 100 103
209 161 203 85 252 225 273 174 206 201 201 200 185 198 184 155 151 166 253 155 210 118 233 166 253 232 287 343 167 173 171 155 176 172 180 176 170 175 176 178 178 185 191 184 180 173 168 166 167 161 156 158 161 169 164 162 159 155 156 153 146 144 147 145 143 143 141 137 136 133 129 124 119 114 111 108 104 102 102 102 104 111 100 103 101 101
174 87 97 194 214 212 264 353 11 120 83 210 195 218 178 203 166 192 205 238 48 250 112 165 20 257 277 346 3 44 54 74 161 152 153 160 166 175 180 173 178 183 181 176 172 173 173 172 170 168 168 171 173 171 164 164 167 164 161 153 153 149 156 154 149 146 143 139 137 134 127 121 120 117 116 116 115 113 112 110 110 111 117 115 108 86
99 145 177 339 9 329 273 168 160 36 135 326 270 203 181 206 198 206 209 174 175 190 201 292 257 270 290 57 329 69 42 8 11 130 141 154 164 170 163 164 166 168 169 162 166 168 167 164 161 162 174 176 180 177 173 167 165 165 165 160 156 161 160 155 151 148 144 140 135 133 128 128 127 122 124 125 128 125 123 119 112 111 112 117 106 108
137 206 152 113 276 269 308 341 283 220 146 218 198 206 205 208 196 201 96 343 192 211 162 151 237 182 266 35 338 60 65 49 77 78 126 134 138 144 152 156 154 158 162 169 172 171 163 165 175 182 182 181 179 177 173 172 173 169 170 165 166 167 162 153 152 150 149 145 140 138 138 139 138 138 135 131 130 126 122 117 113 108 110 105 111 123
181 172 159 186 208 214 208 205 210 205 209 203 224 197 199 197 184 128 206 173 220 208 152 205 235 178 145 16 9 82 72 159 137 147 119 143 154 148 155 158 161 166 178 175 169 165 180 184 179 177 182 183 184 182 179 176 173 172 171 173 169 166 160 157 154 158 151 149 146 148 149 150 149 147 140 135 131 127 123 121 118 116 105 116 130 137
168 196 203 207 209 223 237 327 298 105 82 193 207 188 203 201 189 186 172 186 214 160 191 225 168 160 228 240 186 219 218 190 159 163 161 145 149 160 166 170 175 175 175 175 177 180 165 170 189 190 184 184 183 183 182 179 177 176 174 174 173 169 160 161 160 159 156 156 157 155 158 158 154 145 141 140 139 136 137 134 134 126 128 128 133 140
101 197 221 224 228 228 164 226 283 168 180 210 185 203 202 197 195 188 195 214 131 122 240 210 139 222 231 165 187 194 223 221 197 176 153 154 177 172 176 173 172 165 174 170 174 178 189 194 187 184 189 186 188 185 182 186 184 180 179 177 174 169 165 167 166 163 162 162 163 164 161 156 148 144 145 143 139 139 136 131 127 120 119 124 133 119
167 216 226 201 235 236 250 251 335 309 204 192 198 197 200 202 197 203 212 202 155 205 230 193 160 211 245 168 180 191 206 206 195 180 190 180 166 162 154 165 179 185 184 184 195 195 192 189 195 195 191 193 185 186 187 184 185 183 182 178 176 172 174 166 164 166 165 166 168 166 157 148 145 147 143 139 139 138 132 132 130 131 133 143 139 128
133 236 223 184 222 206 231 228 290 27 349 314 211 207 202 199 206 205 209 213 206 219 235 231 195 227 240 129 172 202 202 183 195 167 126 144 172 176 180 184 192 196 193 198 199 198 199 201 198 198 193 186 188 189 188 188 188 187 181 177 175 172 168 159 169 167 167 170 169 159 155 150 149 150 145 146 150 148 143 141 138 138 141 142 137 144
173 232 176 187 214 221 209 199 222 255 279 267 284 250 221 209 203 197 208 221 218 251 250 263 296 272 251 150 161 188 191 123 97 126 166 180 177 184 187 195 203 206 209 209 206 205 206 202 199 189 188 193 193 193 191 191 186 178 176 178 177 172 162 158 164 171 173 172 159 156 154 154 155 150 151 151 145 144 143 138 144 148 149 152 149 152
175 251 49 178 212 220 202 194 192 204 277 259 274 266 243 189 172 195 211 193 183 220 236 261 259 255 269 116 166 182 145 160 184 191 184 192 194 189 189 203 209 215 213 211 212 208 197 195 191 189 194 196 195 191 189 188 184 178 186 182 175 166 157 163 172 177 178 169 161 162 162 160 154 152 153 152 153 150 148 147 151 156 157 156 154 158
188 168 176 188 207 204 175 158 150 132 131 283 236 236 225 208 220 229 215 185 205 201 206 215 234 244 226 118 131 213 174 195 198 200 218 223 213 190 198 207 215 216 211 211 210 202 200 197 194 193 195 193 195 193 196 188 179 189 188 179 172 156 169 177 180 179 174 168 164 165 163 160 161 161 158 157 150 145 147 150 154 162 168 168 169 154
165 187 189 176 198 127 136 136 132 148 210 224 267 154 183 201 205 210 221 219 202 170 219 223 244 273 311 194 164 205 204 214 209 229 203 197 202 206 215 215 218 219 215 208 197 193 196 189 192 198 197 197 198 198 190 183 189 192 181 172 164 172 177 178 184 180 176 168 169 167 166 166 168 167 159 149 145 148 154 162 175 172 169 161 155 160
173 177 191 154 149 159 129 124 163 212 225 92 278 304 182 199 196 203 222 225 221 216 225 251 258 258 249 225 222 218 207 221 220 227 242 201 168 192 213 222 227 218 205 193 188 186 181 186 193 197 201 202 196 189 176 189 188 164 162 167 174 179 178 184 181 182 177 172 171 168 167 168 170 163 153 147 149 157 168 176 174 170 177 171 166 172
173 175 154 158 127 52 136 174 191 220 74 273 252 192 108 109 168 184 231 241 235 220 212 230 244 249 251 250 240 243 231 216 356 250 149 209 182 195 206 214 214 186 185 191 177 190 186 190 191 191 202 194 173 179 180 188 178 169 178 170 177 179 182 178 182 185 177 177 174 173 172 169 172 168 156 153 163 172 174 176 178 176 174 164 164 157
171 146 168 174 175 160 191 201 230 359 324 228 167 188 166 162 165 163 197 241 225 206 194 216 239 244 252 255 221 96 83 53 333 287 214 205 242 192 181 199 181 198 192 206 188 202 200 187 178 188 169 167 174 172 185 180 175 175 163 170 178 177 180 179 185 189 186 183 178 177 176 176 174 169 159 164 173 179 180 176 177 182 172 162 165 163
183 181 203 161 217 140 148 143 352 279 246 253 160 157 166 164 148 163 150 268 206 179 191 203 228 234 238 235 120 111 73 38 281 274 266 241 203 200 222 188 109 116 126 118 99 96 95 121 142 157 155 169 176 180 172 166 165 160 164 172 173 175 184 185 193 191 187 188 184 183 182 181 177 170 169 172 183 183 180 171 168 177 172 169 166 172
49 83 47 188 185 136 163 179 196 207 237 152 162 147 163 143 137 111 89 266 248 171 192 191 215 223 214 157 145 106 99 236 256 258 299 353 168 171 171 184 157 149 146 154 143 134 139 152 153 158 153 157 174 182 158 156 154 157 171 174 177 180 185 195 197 193 193 194 190 186 180 179 179 175 171 177 183 178 172 174 176 167 152 169 158 155
117 165 164 210 212 186 178 193 220 201 252 133 164 178 147 126 115 86 5 260 290 191 194 176 204 212 151 151 146 145 168 224 243 256 195 110 118 107 140 157 140 128 122 108 123 161 169 154 118 127 152 172 187 162 153 153 160 171 176 182 176 182 196 201 201 199 196 187 181 181 181 182 180 175 172 176 171 172 169 154 148 160 158 166 153 144
155 210 217 207 202 206 197 237 338 289 261 139 162 166 175 124 99 141 223 215 220 245 261 144 173 155 142 146 160 180 225 196 196 179 166 101 89 69 53 80 154 161 162 165 173 139 136 151 159 177 186 188 168 159 160 158 163 179 182 175 179 198 206 206 196 186 184 176 173 178 181 179 180 174 172 166 165 158 151 157 157 150 156 164 147 140
151 112 22 91 226 206 209 217 227 270 221 154 203 154 168 103 200 214 233 161 149 191 241 138 149 172 143 165 172 194 216 168 151 133 136 161 173 177 135 115 84 80 89 148 161 140 146 150 153 161 170 174 155 160 160 162 172 183 172 179 199 210 208 169 172 173 166 171 175 174 173 173 169 164 155 145 144 151 153 148 143 151 153 162 150 153
180 156 192 198 202 10 188 220 184 233 229 123 129 63 291 159 239 147 132 87 152 157 146 178 163 205 143 207 213 208 123 113 141 161 182 172 137 154 160 158 166 173 167 146 164 192 154 168 177 186 187 169 150 157 164 161 176 180 184 194 216 207 159 174 166 167 172 169 170 174 171 168 163 158 152 153 157 153 152 148 146 149 154 158 149 153
184 136 203 220 180 174 192 202 214 210 123 169 145 186 188 189 182 145 128 174 190 151 156 175 203 194 180 180 210 222 183 148 158 157 141 168 168 164 176 196 207 204 212 218 192 190 168 177 183 186 186 154 158 161 167 169 182 189 190 216 213 149 166 168 173 162 168 174 175 167 167 163 158 154 153 154 152 152 148 152 150 151 162 163 158 159
211 191 183 194 179 177 207 218 163 177 161 198 112 80 141 163 150 158 129 159 163 237 173 149 208 216 194 176 180 176 182 183 187 187 169 210 191 179 189 208 201 200 200 197 200 191 180 184 186 181 181 178 170 183 180 184 180 193 209 223 148 180 169 169 163 169 174 175 171 166 159 149 153 156 157 159 158 156 156 151 154 157 172 164 170 167
340 103 51 80 291 277 351 129 134 86 160 188 59 19 144 152 144 123 131 136 194 180 175 180 202 192 200 187 180 199 158 189 164 211 195 203 195 216 211 219 229 227 217 202 190 186 192 181 164 167 191 213 197 193 193 193 184 191 221 183 171 171 166 162 167 176 181 169 165 160 149 151 151 154 160 161 172 171 167 163 167 168 167 175 184 179
227 127 110 145 249 158 256 131 135 174 189 181 132 56 45 83 151 127 143 152 177 168 178 183 169 189 193 173 167 184 221 200 199 219 205 213 218 219 214 209 220 209 198 197 208 171 167 173 177 194 198 214 217 200 205 202 207 215 195 171 176 165 163 167 173 177 169 168 159 156 160 164 166 164 165 171 168 169 164 167 169 169 170 177 181 183
277 161 76 212 230 197 232 145 138 23 45 115 145 147 178 229 164 142 155 135 117 136 149 181 142 132 120 143 170 168 215 208 177 214 210 216 217 221 224 227 230 235 230 215 197 170 168 180 194 203 204 221 217 201 204 211 219 218 197 180 168 163 161 173 178 179 179 172 167 168 173 172 167 166 171 179 176 175 176 182 183 182 183 181 183 177
164 122 209 181 181 226 48 22 102 43 360 317 7 298 219 190 188 204 162 156 141 128 115 118 148 170 160 184 172 175 201 231 192 201 210 226 228 223 226 229 235 232 230 217 196 173 193 205 214 216 209 225 213 194 201 216 224 217 206 197 172 163 170 180 182 173 164 164 162 172 175 176 172 178 172 178 190 207 196 181 186 194 200 210 192 183
124 199 185 114 145 209 216 203 143 140 240 231 209 221 234 234 169 151 155 174 184 185 188 195 239 193 180 187 179 186 193 219 219 206 219 225 223 223 227 230 235 232 235 223 190 188 200 203 213 228 233 244 211 196 206 219 222 211 204 187 181 170 176 176 169 172 175 172 175 172 172 179 177 177 180 182 188 188 211 220 209 204 190 193 199 202
184 192 148 171 195 225 169 154 182 178 176 193 190 214 214 214 164 178 200 210 218 205 184 181 216 244 227 228 198 187 205 205 225 206 222 235 235 227 221 225 236 237 226 207 184 201 202 219 221 228 241 243 213 214 213 218 213 200 196 183 179 182 183 165 171 181 177 174 190 183 179 178 179 185 184 186 184 188 187 191 212 214 212 205 201 203